User: anonymous   Login
Location: Columbia
(38.9520°N, 92.3340°W)
Time: 19:53:32
(UTC-05:00)
Language:

Cosmos 2100 Rocket - Orbit

View from above orbital plane
View from above orbital plane
View from above satellite
View from above satellite

Ground track
Ground track

The orbit data is extracted from the following two-line orbital elements,

1 20805U 90083B   15181.70140130  .00000014  00000-0 -12958-5 0  9993
2 20805 082.9364 233.5904 0029475 236.0939 274.1512 13.75775245244743
Epoch (UTC): 30 June 2015 16:50:01
Eccentricity: 0.0029475
inclination: 82.9364°
perigee height: 957 km
apogee height: 1000 km
right ascension of ascending node: 233.5904°
argument of perigee: 236.0939°
revolutions per day: 13.75775245
mean anomaly at epoch: 274.1512°
orbit number at epoch: 24474

The dashed part of the orbit path shows where the satellite is in the earth's shadow,  

DLR